Location: Paris
(48.6709°N, 2.3750°E)
Time: 20:49:38
(UTC+02:00)

Gurwin Techsat 1B - Pass Details

Date: 04 July 2022
Orbit: 812 x 813 km, 98.8° (Epoch: 07 August)

Event Time Altitude Azimuth Distance (km) Brightness Sun altitude
Rises 02:51:08 0° 32° (NNE) 3,346 13.2 -17.3°
Reaches altitude 10° 02:55:07 10° 62° (ENE) 2,407 11.7 -17.2°
Maximum altitude 02:57:14 12° 86° (E) 2,243 11.1 -17.1°
Drops below altitude 10° 02:59:21 10° 109° (ESE) 2,400 11.0 -17.0°
Enters shadow 03:02:31 - 135° (SE) 3,101 11.4 -16.9°
